{"data":{"norad_id":68585,"epoch":"2026-09-19T23:31:01.016832Z","epoch_age_seconds":111392,"freshness":"FRESH","line1":"1 68585U 26072N   26262.97987288  .00001797  00000+0  26475-3 0  9995","line2":"2 68585  51.9025 126.5123 0001306  79.3925 280.7184 14.79930887 25295","mean_motion":14.79930887,"eccentricity":0.0001306,"inclination_deg":51.9025,"raan_deg":126.5123,"arg_perigee_deg":79.3925,"mean_anomaly_deg":280.7184,"bstar":0.00026475,"rev_number":2529,"period_min":97.301841096043,"perigee_km":628.62709648382,"apogee_km":630.45750231683,"semimajor_km":7007.6792994003,"source":"CELESTRAK","updated_at":"2026-09-20T09:00:24.321537Z"}}